sat.trackr.live / text

‹ back to catalog

STARLINK-37405

NORAD 68809 · 2026-089H

PAYLOAD ACTIVE UNKNOWN

§ Identity

Operator
Country
US
Launch date
2026-04-23
Launch site
AFWTR
Launch vehicle
Mass (kg)
RCS (m²)

Purposes: comms

External: N2YO · Heavens-Above · Gunter

§ Orbital elements

Epoch: 2026-05-25T02:46:44.192928Z

Period
91.42 min
Inclination
97.2845°
Eccentricity
0.0001791
Mean motion
15.75180817 rev/d
Perigee alt
342.9 km
Apogee alt
345.3 km
Semi-major
6,722.3 km
B*
1.2875e-3
RAAN
351.7594°
Arg perigee
73.7988°
Mean anomaly
286.3474°
Rev number
506

§ Raw data

STARLINK-374051 68809U 26089H   26145.11578927  .00196313  00000+0  12875-2 0  99912 68809  97.2845 351.7594 0001791  73.7988 286.3474 15.75180817  5060

JSON: /api/v1/satellites/68809 · /tle

For live sub-satellite position, see the globe view (requires WebGL).

§ Visibility from observer

Set your observer location to see the next 7 days of passes ≥ 10°. The values pass through the URL so the page stays shareable.

No JS? Fill the form by hand. The geolocation button needs JavaScript.